FW0858 Bay Shore NY US current weather conditions

sailwx.info

Wind from 231 at 2 knots gusting 8

Air temperature 2.8° C
Dewpoint -0.9° C

Last reported at 2020-Jan-27 12:07 UTC.
Time now 2020-Jan-27 13:00 UTC

Location: N 40°43' W 073°14'.
View on Google Maps.

See reports from other nearby stations

  
Tides and Currents Weather Stations Pressure Air Temp Water Temp Dewpoint Dewpoint Depression Visibility Wind Speed Wind Dir Waves Ship Positions
date/time (UTC)wind fromknots sea level pressurealtimeterstation pressurevisibilityair tempwater tempwave heightnotes
2020-Jan-27 12:07 231 2 gusting 8 2.8
2020-Jan-27 12:02 248 2 gusting 6 2.8
2020-Jan-27 11:57 223 2 gusting 6 2.8
2020-Jan-27 11:52 232 2 gusting 7 2.8
2020-Jan-27 11:47 248 2 gusting 7 2.8
2020-Jan-27 11:42 294 2 gusting 6 2.8
2020-Jan-27 11:37 293 2 gusting 9 2.8
2020-Jan-27 11:32 306 1 gusting 9 2.8
2020-Jan-27 11:27 244 2 gusting 6 2.8
2020-Jan-27 11:22 275 2 gusting 6 2.8
2020-Jan-27 11:17 278 2 gusting 7 2.8
2020-Jan-27 11:12 291 3 gusting 7 2.8
2020-Jan-27 11:07 302 3 gusting 7 2.8
2020-Jan-27 11:02 272 3 gusting 6 2.8
2020-Jan-27 10:57 291 2 gusting 6 2.8
2020-Jan-27 10:52 296 2 gusting 5 2.8
2020-Jan-27 10:47 297 2 gusting 6 2.8
2020-Jan-27 10:42 205 3 gusting 8 2.8
2020-Jan-27 10:37 293 3 gusting 8 2.8
2020-Jan-27 10:32 243 2 gusting 7 2.8
2020-Jan-27 10:27 254 2 gusting 7 2.8
2020-Jan-27 10:22 285 2 gusting 6 2.8
2020-Jan-27 10:17 296 2 gusting 6 2.8
2020-Jan-27 10:12 325 2 gusting 8 2.8
2020-Jan-27 10:07 295 2 gusting 9 2.8
2020-Jan-27 10:02 270 2 gusting 9 2.8
2020-Jan-27 09:57 301 2 gusting 6 2.8
2020-Jan-27 09:52 279 1 gusting 6 2.8
2020-Jan-27 09:47 314 3 gusting 9 2.8
2020-Jan-27 09:42 281 4 gusting 9 2.8
2020-Jan-27 09:37 290 2 gusting 8 2.8
2020-Jan-27 09:32 253 2 gusting 6 2.8
2020-Jan-27 09:27 270 2 gusting 6 2.8
2020-Jan-27 09:22 259 3 gusting 7 2.8
2020-Jan-27 09:17 268 2 gusting 7 2.2
2020-Jan-27 09:12 282 1 gusting 6 2.2
2020-Jan-27 09:07 343 1 gusting 6 2.2
2020-Jan-27 09:02 226 1 gusting 5 2.2
2020-Jan-27 08:57 269 2 gusting 6 2.2
2020-Jan-27 08:52 231 2 gusting 6 2.2
2020-Jan-27 08:47 299 2 gusting 6 2.2
2020-Jan-27 08:42 271 1 gusting 6 2.2
2020-Jan-27 08:37 300 1 gusting 6 2.2
2020-Jan-27 08:32 240 1 gusting 5 2.2
2020-Jan-27 08:27 282 2 gusting 6 2.2
2020-Jan-27 08:22 281 2 gusting 8 2.2
2020-Jan-27 08:17 274 2 gusting 8 2.2
2020-Jan-27 08:12 224 2 gusting 6 2.2
2020-Jan-27 08:07 250 1 gusting 5 2.2
2020-Jan-27 08:02 255 0 gusting 5 2.2
2020-Jan-27 07:57 251 0 gusting 5 2.2
2020-Jan-27 07:52 243 1 gusting 4 2.2
2020-Jan-27 07:47 293 1 gusting 5 2.2
2020-Jan-27 07:42 292 2 gusting 5 2.2
2020-Jan-27 07:37 290 1 gusting 5 2.2
2020-Jan-27 07:32 267 1 gusting 5 2.2
2020-Jan-27 07:27 276 1 gusting 5 2.2
2020-Jan-27 07:22 280 2 gusting 6 2.2
2020-Jan-27 07:17 274 2 gusting 6 2.2
2020-Jan-27 07:12 296 2 gusting 6 2.8
2020-Jan-27 07:07 276 2 gusting 6 2.8
2020-Jan-27 07:02 280 2 gusting 6 2.8
2020-Jan-27 06:57 294 2 gusting 6 2.8
2020-Jan-27 06:52 295 2 gusting 6 2.8
2020-Jan-27 06:47 274 2 gusting 5 2.8
2020-Jan-27 06:42 285 2 gusting 6 2.8
2020-Jan-27 06:37 293 2 gusting 6 2.8
2020-Jan-27 06:32 300 2 gusting 6 2.8
2020-Jan-27 06:27 279 2 gusting 6 2.8
2020-Jan-27 06:21 290 2 gusting 6 2.8
2020-Jan-27 06:16 293 2 gusting 6 2.8
2020-Jan-27 06:11 285 2 gusting 6 2.8
2020-Jan-27 06:06 286 2 gusting 5 2.8
2020-Jan-27 06:01 289 2 gusting 5 2.8
2020-Jan-27 05:56 259 2 gusting 5 2.8
2020-Jan-27 05:51 293 2 gusting 6 2.8
2020-Jan-27 05:46 293 2 gusting 6 2.8
2020-Jan-27 05:41 280 2 gusting 5 2.8
2020-Jan-27 05:36 288 2 gusting 5 2.8
2020-Jan-27 05:31 287 2 gusting 5 3.3
2020-Jan-27 05:26 283 2 gusting 5 3.3
2020-Jan-27 05:21 305 1 gusting 4 3.3
2020-Jan-27 05:16 298 2 gusting 5 3.3
2020-Jan-27 05:11 297 2 gusting 7 3.3
2020-Jan-27 05:06 292 2 gusting 7 3.3
2020-Jan-27 05:01 294 1 gusting 5 3.3
2020-Jan-27 04:56 290 1 gusting 6 3.3
2020-Jan-27 04:51 283 2 gusting 6 3.3
2020-Jan-27 04:46 286 2 gusting 6 3.3
2020-Jan-27 04:41 282 2 gusting 7 3.3
2020-Jan-27 04:36 240 3 gusting 7 3.3
2020-Jan-27 04:31 283 4 gusting 7 3.3
2020-Jan-27 04:26 297 4 gusting 8 3.3
2020-Jan-27 04:21 283 4 gusting 8 3.3
2020-Jan-27 04:16 291 3 gusting 6 3.3
2020-Jan-27 04:11 271 2 gusting 6 3.3
2020-Jan-27 04:06 287 2 gusting 6 3.9
2020-Jan-27 04:01 283 2 gusting 6 3.9
2020-Jan-27 03:56 290 3 gusting 7 3.9
2020-Jan-27 03:51 296 3 gusting 7 3.9
2020-Jan-27 03:46 276 3 gusting 7 3.9
2020-Jan-27 03:41 289 4 gusting 8 3.9
2020-Jan-27 03:36 292 4 gusting 9 4.4
2020-Jan-27 03:31 275 3 gusting 9 4.4
2020-Jan-27 03:26 308 4 gusting 8 4.4
2020-Jan-27 03:21 295 4 gusting 8 4.4
2020-Jan-27 03:16 300 3 gusting 9 4.4
2020-Jan-27 03:11 258 3 gusting 10 4.4
2020-Jan-27 03:06 288 4 gusting 10 4.4
2020-Jan-27 03:01 283 4 gusting 8 4.4
2020-Jan-27 02:56 276 4 gusting 8 4.4
2020-Jan-27 02:51 285 4 gusting 8 5.0
2020-Jan-27 02:46 298 4 gusting 7 5.0
2020-Jan-27 02:41 295 4 gusting 12 5.0
2020-Jan-27 02:36 276 3 gusting 12 5.0
2020-Jan-27 02:31 293 4 gusting 6 5.6
2020-Jan-27 02:26 288 3 gusting 9 5.6
2020-Jan-27 02:21 292 3 gusting 9 5.6
2020-Jan-27 02:16 297 3 gusting 8 5.6
2020-Jan-27 02:11 300 4 gusting 10 5.6
2020-Jan-27 02:06 226 4 gusting 10 5.6
2020-Jan-27 02:01 287 4 gusting 12 5.6
2020-Jan-27 01:56 338 5 gusting 12 6.1
2020-Jan-27 01:51 293 4 gusting 10 6.1
2020-Jan-27 01:46 278 4 gusting 11 6.1
2020-Jan-27 01:41 285 3 gusting 11 6.1
2020-Jan-27 01:36 292 1 gusting 6 6.1
2020-Jan-27 01:31 281 1 gusting 5 6.1
2020-Jan-27 01:26 294 1 gusting 4 6.1
2020-Jan-27 01:21 283 1 gusting 4 6.1
2020-Jan-27 01:16 290 1 gusting 4 6.1
2020-Jan-27 01:11 285 1 gusting 4 6.1
2020-Jan-27 01:06 295 1 gusting 4 6.1
2020-Jan-27 01:01 271 2 gusting 4 6.1
2020-Jan-27 00:56 274 1 gusting 4 6.1
2020-Jan-27 00:51 285 1 gusting 5 6.1
2020-Jan-27 00:46 248 1 gusting 5 6.1
2020-Jan-27 00:41 277 1 gusting 4 6.1
2020-Jan-27 00:36 255 0 gusting 2 6.1
2020-Jan-27 00:31 285 0 gusting 4 6.1
2020-Jan-27 00:26 274 0 gusting 4 6.1
2020-Jan-27 00:21 259 0 gusting 3 6.1
2020-Jan-27 00:16 246 0 gusting 3 6.1
2020-Jan-27 00:11 288 0 gusting 2 6.1
2020-Jan-27 00:06 275 0 gusting 2 6.1
2020-Jan-27 00:01 214 0 gusting 3 6.1
2020-Jan-26 23:56 267 0 gusting 3 6.1
2020-Jan-26 23:51 289 0 gusting 3 6.1
2020-Jan-26 23:46 253 1 gusting 4 6.1
2020-Jan-26 23:41 258 1 gusting 4 6.1
2020-Jan-26 23:36 288 0 gusting 2 6.1
2020-Jan-26 23:31 242 0 gusting 2 6.1
2020-Jan-26 23:26 259 0 gusting 2 6.1
2020-Jan-26 23:21 229 0 gusting 2 6.1
2020-Jan-26 23:16 219 0 gusting 2 6.1
2020-Jan-26 23:11 238 0 gusting 2 6.7
2020-Jan-26 23:06 275 6.7
2020-Jan-26 23:01 283 6.7
2020-Jan-26 22:56 288 0 gusting 3 6.7
2020-Jan-26 22:51 286 1 gusting 3 6.7
2020-Jan-26 22:46 289 1 gusting 4 6.7
2020-Jan-26 22:41 290 1 gusting 4 6.7
2020-Jan-26 22:36 290 1 gusting 4 6.7
2020-Jan-26 22:31 299 2 gusting 6 6.7
2020-Jan-26 22:26 304 2 gusting 6 6.7
2020-Jan-26 22:21 258 1 gusting 4 6.7
2020-Jan-26 22:16 287 2 gusting 6 6.7
2020-Jan-26 22:11 283 3 gusting 6 6.7
2020-Jan-26 22:06 306 4 gusting 9 6.7
2020-Jan-26 22:01 298 3 gusting 9 6.7
2020-Jan-26 21:56 281 2 gusting 7 6.7
2020-Jan-26 21:51 293 1 gusting 6 6.7
2020-Jan-26 21:46 302 1 gusting 5 6.7
2020-Jan-26 21:41 300 2 gusting 6 7.2
2020-Jan-26 21:36 290 2 gusting 6 7.2
2020-Jan-26 21:31 304 2 gusting 7 7.2
2020-Jan-26 21:26 319 3 gusting 9 7.2
2020-Jan-26 21:21 292 4 gusting 10 7.2
2020-Jan-26 21:16 297 3 gusting 10 7.8
2020-Jan-26 21:11 295 3 gusting 9 7.8
2020-Jan-26 21:06 305 3 gusting 9 7.8
2020-Jan-26 21:01 273 4 gusting 7 7.8
2020-Jan-26 20:56 275 5 gusting 11 7.2
2020-Jan-26 20:51 287 5 gusting 11 7.2
2020-Jan-26 20:46 290 4 gusting 11 7.2
2020-Jan-26 20:41 307 5 gusting 12 7.8
2020-Jan-26 20:36 290 5 gusting 12 7.8
2020-Jan-26 20:31 283 5 gusting 11 8.3
2020-Jan-26 20:26 294 6 gusting 11 8.3
2020-Jan-26 20:21 300 5 gusting 11 8.3
2020-Jan-26 20:16 276 4 gusting 11 8.3
2020-Jan-26 20:11 328 4 gusting 10 8.3
2020-Jan-26 20:06 293 4 gusting 10 7.8
2020-Jan-26 20:01 281 4 gusting 9 7.8
2020-Jan-26 19:56 291 5 gusting 12 7.8
2020-Jan-26 19:51 292 5 gusting 12 8.3
2020-Jan-26 19:46 285 4 gusting 14 8.3
2020-Jan-26 19:41 288 4 gusting 14 8.3
2020-Jan-26 19:36 271 4 gusting 10 8.3
2020-Jan-26 19:31 283 5 gusting 11 8.3
2020-Jan-26 19:26 300 6 gusting 11 8.3
2020-Jan-26 19:21 008 5 gusting 11 8.3
2020-Jan-26 19:16 291 4 gusting 11 8.3
2020-Jan-26 19:11 304 5 gusting 11 8.3
2020-Jan-26 19:06 272 5 gusting 10 8.3
2020-Jan-26 19:01 278 6 gusting 13 8.3
2020-Jan-26 18:56 293 5 gusting 13 8.3
2020-Jan-26 18:51 304 4 gusting 12 8.3
2020-Jan-26 18:46 286 6 gusting 13 8.3
2020-Jan-26 18:41 293 6 gusting 13 8.3
2020-Jan-26 18:36 294 6 gusting 13 7.8
2020-Jan-26 18:31 288 5 gusting 13 7.8
2020-Jan-26 18:26 304 4 gusting 13 7.8
2020-Jan-26 18:21 320 5 gusting 12 7.8
2020-Jan-26 18:16 293 6 gusting 11 7.2
2020-Jan-26 18:11 318 6 gusting 11 7.8
2020-Jan-26 18:06 309 5 gusting 10 7.8
2020-Jan-26 18:01 300 5 gusting 9 7.8
2020-Jan-26 17:56 301 5 gusting 11 7.8
2020-Jan-26 17:51 293 4 gusting 11 7.8
2020-Jan-26 17:46 300 5 gusting 11 7.8
2020-Jan-26 17:41 323 5 gusting 13 7.8
2020-Jan-26 17:36 290 5 gusting 13 7.2
2020-Jan-26 17:31 277 5 gusting 10 7.2
2020-Jan-26 17:26 300 4 gusting 10 7.2
2020-Jan-26 17:21 277 5 gusting 10 7.2
2020-Jan-26 17:16 299 6 gusting 14 7.2
2020-Jan-26 17:11 285 6 gusting 14 7.2
2020-Jan-26 17:06 298 6 gusting 12 7.2
2020-Jan-26 17:01 300 6 gusting 12 7.2
2020-Jan-26 16:56 285 6 gusting 12 7.2
2020-Jan-26 16:51 308 6 gusting 12 7.8
2020-Jan-26 16:46 308 5 gusting 11 7.8
2020-Jan-26 16:41 294 4 gusting 11 7.2
2020-Jan-26 16:36 283 4 gusting 11 7.2
2020-Jan-26 16:31 290 5 gusting 12 7.2
2020-Jan-26 16:26 302 4 gusting 12 7.2
2020-Jan-26 16:21 286 3 gusting 12 7.2
2020-Jan-26 16:16 288 4 gusting 9 7.2
2020-Jan-26 16:11 269 4 gusting 9 7.2
2020-Jan-26 16:06 293 4 gusting 10 6.7
2020-Jan-26 16:01 302 5 gusting 10 6.7
2020-Jan-26 15:56 254 5 gusting 11 6.7
2020-Jan-26 15:51 305 4 gusting 11 6.7
2020-Jan-26 15:46 268 3 gusting 8 6.7
2020-Jan-26 15:41 204 3 gusting 7 6.7
2020-Jan-26 15:36 291 4 gusting 9 6.7
2020-Jan-26 15:31 216 5 gusting 9 6.1
2020-Jan-26 15:26 318 4 gusting 9 6.1
2020-Jan-26 15:21 288 4 gusting 10 6.1
2020-Jan-26 15:16 305 5 gusting 10 6.1
2020-Jan-26 15:11 289 4 gusting 7 6.1
2020-Jan-26 15:06 302 3 gusting 7 6.1
2020-Jan-26 15:01 288 3 gusting 6 6.1
2020-Jan-26 14:56 295 3 gusting 7 5.6
2020-Jan-26 14:51 290 4 gusting 7 5.6
2020-Jan-26 14:46 300 3 gusting 7 5.6
2020-Jan-26 14:41 297 3 gusting 7 5.6
2020-Jan-26 14:36 303 3 gusting 7 5.6
2020-Jan-26 14:31 297 3 gusting 6 5.0
2020-Jan-26 14:26 290 4 gusting 8 5.0
2020-Jan-26 14:21 299 4 gusting 11 5.0
2020-Jan-26 14:16 291 3 gusting 11 5.0
2020-Jan-26 14:11 274 3 gusting 7 5.0
2020-Jan-26 14:06 274 3 gusting 7 4.4
2020-Jan-26 14:01 293 3 gusting 7 4.4
2020-Jan-26 13:56 280 3 gusting 8 4.4
2020-Jan-26 13:51 290 2 gusting 8 4.4
2020-Jan-26 13:46 241 3 gusting 7 3.9
2020-Jan-26 13:41 288 4 gusting 7 3.9
2020-Jan-26 13:36 281 3 gusting 6 3.9
2020-Jan-26 13:31 264 2 gusting 6 3.3
2020-Jan-26 13:26 281 2 gusting 6 3.3
2020-Jan-26 13:21 285 2 gusting 6 3.3
2020-Jan-26 13:16 283 1 gusting 5 3.3
2020-Jan-26 13:11 282 1 gusting 4 3.3
2020-Jan-26 13:06 255 0 gusting 3 2.8
2020-Jan-26 13:01 264 0 gusting 3 2.8
2020-Jan-26 12:56 286 0 gusting 2 2.8
2020-Jan-26 12:51 278 2.8
2020-Jan-26 12:46 279 2.2
2020-Jan-26 12:41 291 2.2
2020-Jan-26 12:36 297 1.7
2020-Jan-26 12:31 255 1.7
2020-Jan-26 12:26 253 1.7
2020-Jan-26 12:21 275 1.1
2020-Jan-26 12:16 274 1.1
2020-Jan-26 12:11 275 1.7
2020-Jan-26 12:06 275 1.7
2020-Jan-26 12:01 277 1.7
2020-Jan-26 11:56 277 1.7
2020-Jan-26 11:51 285 1.7
2020-Jan-26 11:46 253 1.7
2020-Jan-26 11:41 281 1.7
2020-Jan-26 11:36 281 1.7
2020-Jan-26 11:31 246 1.7
2020-Jan-26 11:26 245 1.7
2020-Jan-26 11:21 243 1.7
2020-Jan-26 11:16 243 1.7
2020-Jan-26 11:11 247 1.7
2020-Jan-26 11:06 257 2.2
2020-Jan-26 11:01 242 2.2
2020-Jan-26 10:56 284 2.2
2020-Jan-26 10:51 271 2.2
2020-Jan-26 10:46 273 2.2
2020-Jan-26 10:41 272 2.2
2020-Jan-26 10:36 311 0 gusting 1 2.2
2020-Jan-26 10:31 277 0 gusting 1 2.8
2020-Jan-26 10:26 268 0 gusting 2 2.8
2020-Jan-26 10:21 280 0 gusting 3 2.8
2020-Jan-26 10:16 275 0 gusting 3 2.8
2020-Jan-26 10:11 285 1 gusting 4 2.8
2020-Jan-26 10:06 295 1 gusting 4 2.8
2020-Jan-26 10:01 271 0 gusting 3 2.8
2020-Jan-26 09:56 279 0 gusting 2 2.8
2020-Jan-26 09:51 280 0 gusting 3 2.8
2020-Jan-26 09:45 285 0 gusting 3 2.8
2020-Jan-26 09:40 288 0 gusting 2 3.3
2020-Jan-26 09:36 254 0 gusting 3 3.3
2020-Jan-26 09:30 259 1 gusting 3 3.3
2020-Jan-26 09:25 280 1 gusting 5 3.3
2020-Jan-26 09:20 295 1 gusting 5 3.3
2020-Jan-26 09:15 264 1 gusting 4 3.3
2020-Jan-26 09:10 262 2 gusting 5 3.3
2020-Jan-26 09:05 295 2 gusting 6 3.3
2020-Jan-26 09:00 287 2 gusting 6 3.3
2020-Jan-26 08:55 293 2 gusting 5 3.3
2020-Jan-26 08:51 290 1 gusting 5 3.3
2020-Jan-26 08:45 283 1 gusting 4 3.3
2020-Jan-26 08:40 298 1 gusting 4 3.3
2020-Jan-26 08:35 294 2 gusting 5 3.3
2020-Jan-26 08:30 300 1 gusting 5 3.3
2020-Jan-26 08:25 276 1 gusting 5 3.9
2020-Jan-26 08:20 291 1 gusting 6 3.9
2020-Jan-26 08:15 283 2 gusting 6 3.9
2020-Jan-26 08:10 290 1 gusting 4 3.9
2020-Jan-26 08:05 285 1 gusting 6 3.9
2020-Jan-26 08:00 295 1 gusting 6 3.9
2020-Jan-26 07:55 256 1 gusting 4 3.9
2020-Jan-26 07:50 301 1 gusting 4 3.9
2020-Jan-26 07:45 295 2 gusting 6 3.9
2020-Jan-26 07:40 292 2 gusting 6 3.9
2020-Jan-26 07:35 314 1 gusting 6 3.9
2020-Jan-26 07:30 296 1 gusting 5 3.9
2020-Jan-26 07:25 291 1 gusting 5 3.9
2020-Jan-26 07:20 290 1 gusting 5 3.9
2020-Jan-26 07:18 250 1 gusting 5 3.9
2020-Jan-26 07:10 278 0 gusting 2 3.9
2020-Jan-26 07:05 287 0 gusting 2 3.9
2020-Jan-26 07:03 229 0 gusting 2 3.9
2020-Jan-26 06:55 264 3.9
2020-Jan-26 06:50 245 3.9
2020-Jan-26 06:45 258 3.9
2020-Jan-26 06:40 274 3.9
2020-Jan-26 06:35 229 4.4
2020-Jan-26 06:30 278 0 gusting 1 4.4
2020-Jan-26 06:25 254 0 gusting 1 4.4
2020-Jan-26 06:20 274 0 gusting 3 4.4
2020-Jan-26 06:16 278 0 gusting 4 4.4
2020-Jan-26 06:05 287 4.4
2020-Jan-26 06:00 283 4.4
2020-Jan-26 05:55 278 0 gusting 2 5.0
2020-Jan-26 05:50 281 1 gusting 3 5.0
2020-Jan-26 05:45 288 1 gusting 4 5.0
2020-Jan-26 05:43 307 1 gusting 4 5.0
2020-Jan-26 05:35 282 1 gusting 4 5.0
2020-Jan-26 05:30 282 1 gusting 3 5.6
2020-Jan-26 05:26 271 1 gusting 5 5.6
2020-Jan-26 05:15 305 1 gusting 5 5.6
2020-Jan-26 05:10 274 2 gusting 6 5.6
2020-Jan-26 05:00 256 2 gusting 6 5.6
2020-Jan-26 04:55 279 3 gusting 8 5.6
2020-Jan-26 04:53 292 4 gusting 8 5.6
2020-Jan-26 04:45 300 4 gusting 11 5.6
2020-Jan-26 04:40 303 3 gusting 11 5.6
2020-Jan-26 04:35 329 3 gusting 9 5.6
2020-Jan-26 04:30 351 3 gusting 9 5.6
2020-Jan-26 04:25 287 3 gusting 6 5.6
2020-Jan-26 04:20 303 3 gusting 9 5.6
2020-Jan-26 04:15 296 2 gusting 9 5.6
2020-Jan-26 04:10 299 2 gusting 7 5.6
2020-Jan-26 04:05 310 2 gusting 6 6.1
2020-Jan-26 04:00 287 2 gusting 6 6.1
2020-Jan-26 03:55 301 2 gusting 6 6.1
2020-Jan-26 03:50 291 2 gusting 6 6.1
2020-Jan-26 03:45 290 2 gusting 7 6.1
2020-Jan-26 03:40 300 3 gusting 9 6.1
2020-Jan-26 03:35 266 4 gusting 10 6.7
2020-Jan-26 03:30 316 4 gusting 12 6.7
2020-Jan-26 03:25 295 3 gusting 12 6.7
2020-Jan-26 03:20 293 3 gusting 9 6.7
2020-Jan-26 03:15 285 2 gusting 6 7.2
2020-Jan-26 03:10 285 3 gusting 8 7.2
2020-Jan-26 03:05 278 3 gusting 8 7.2
2020-Jan-26 03:00 300 2 gusting 7 7.2
2020-Jan-26 02:55 297 2 gusting 7 7.2
2020-Jan-26 02:50 283 2 gusting 6 7.2
2020-Jan-26 02:45 266 2 gusting 6 7.2
2020-Jan-26 02:40 261 2 gusting 8 7.2
2020-Jan-26 02:35 241 3 gusting 9 7.2
2020-Jan-26 02:30 252 2 gusting 9 7.2
2020-Jan-26 02:25 247 2 gusting 6 7.2
2020-Jan-26 02:20 301 2 gusting 7 7.2
2020-Jan-26 02:15 222 2 gusting 9 7.2
2020-Jan-26 02:10 259 2 gusting 9 7.2
2020-Jan-26 02:05 238 2 gusting 6 7.2
2020-Jan-26 02:00 237 2 gusting 6 7.8
2020-Jan-26 01:55 240 2 gusting 6 7.8
2020-Jan-26 01:50 225 3 gusting 9 7.8
2020-Jan-26 01:45 242 5 gusting 10 7.8
2020-Jan-26 01:40 267 5 gusting 13 7.8
2020-Jan-26 01:35 298 5 gusting 13 7.8
2020-Jan-26 01:30 302 3 gusting 9 8.3
2020-Jan-26 01:25 290 3 gusting 9 8.3
2020-Jan-26 01:20 276 3 gusting 9 8.3
2020-Jan-26 01:15 231 2 gusting 6 8.3
2020-Jan-26 01:10 236 3 gusting 6 7.8
2020-Jan-26 01:05 255 3 gusting 6 8.3
2020-Jan-26 01:00 257 3 gusting 6 8.3
2020-Jan-26 00:55 242 3 gusting 8 8.3
2020-Jan-26 00:50 275 3 gusting 8 8.3
2020-Jan-26 00:45 225 3 gusting 6 8.3
2020-Jan-26 00:40 240 3 gusting 7 8.3
2020-Jan-26 00:35 243 3 gusting 7 8.3
2020-Jan-26 00:30 217 3 gusting 7 8.3
2020-Jan-26 00:25 222 2 gusting 6 8.3
2020-Jan-26 00:20 255 2 gusting 6 8.3
2020-Jan-26 00:15 240 2 gusting 6 7.8
2020-Jan-26 00:10 228 2 gusting 6 7.8
2020-Jan-26 00:05 232 3 gusting 7 7.8
2020-Jan-26 00:00 233 3 gusting 7 7.8
2020-Jan-25 23:55 254 3 gusting 6 7.8
2020-Jan-25 23:50 252 2 gusting 6 7.8
2020-Jan-25 23:45 248 2 gusting 5 7.8
2020-Jan-25 23:40 234 1 gusting 4 7.2
2020-Jan-25 23:35 205 1 gusting 3 6.1
2020-Jan-25 23:30 163 1 gusting 3 6.1
2020-Jan-25 23:25 191 2 gusting 5 6.1
2020-Jan-25 23:20 146 4 gusting 9 7.2
2020-Jan-25 23:15 238 5 gusting 11 7.2
2020-Jan-25 23:10 217 5 gusting 11 7.2
2020-Jan-25 23:05 214 5 gusting 10 7.2
2020-Jan-25 23:00 205 6 gusting 13 7.8
2020-Jan-25 22:55 212 9 gusting 15 8.3
2020-Jan-25 22:50 214 8 gusting 15 7.8
2020-Jan-25 22:45 217 7 gusting 13 7.8
2020-Jan-25 22:40 215 7 gusting 12 7.8
2020-Jan-25 22:35 207 9 gusting 14 7.8
2020-Jan-25 22:30 158 10 gusting 14 8.3
2020-Jan-25 22:25 134 10 gusting 14 8.3
2020-Jan-25 22:20 141 11 gusting 16 8.9
2020-Jan-25 22:15 122 11 gusting 16 8.9
2020-Jan-25 22:10 140 12 gusting 18 9.4
2020-Jan-25 22:05 120 11 gusting 18 9.4
2020-Jan-25 22:00 134 11 gusting 19 8.3
2020-Jan-25 21:55 219 11 gusting 19 8.9
2020-Jan-25 21:50 151 9 gusting 19 8.3
2020-Jan-25 21:45 256 9 gusting 15 8.3
2020-Jan-25 21:40 160 11 gusting 18 8.3
2020-Jan-25 21:35 115 11 gusting 19 8.3
2020-Jan-25 21:30 117 10 gusting 19 8.3
2020-Jan-25 21:25 108 10 gusting 19 8.3
2020-Jan-25 21:20 066 10 gusting 19 8.3
2020-Jan-25 21:15 103 11 gusting 19 8.3
2020-Jan-25 21:10 096 11 gusting 20 8.3
2020-Jan-25 21:00 093 11 gusting 22 8.3
2020-Jan-25 20:55 118 11 gusting 21 8.3
2020-Jan-25 20:50 098 12 gusting 19 8.3
2020-Jan-25 20:45 095 12 gusting 22 7.8
2020-Jan-25 20:40 098 13 gusting 26 7.8
2020-Jan-25 20:35 096 13 gusting 26 7.8
2020-Jan-25 20:30 105 13 gusting 24 7.8
2020-Jan-25 20:25 118 13 gusting 24 7.8
2020-Jan-25 20:20 129 13 gusting 27 7.8
2020-Jan-25 20:15 080 14 gusting 27 7.8
2020-Jan-25 20:10 086 13 gusting 27 7.8
2020-Jan-25 20:05 103 14 gusting 28 7.8
2020-Jan-25 20:00 124 13 gusting 28 7.8
2020-Jan-25 19:55 055 13 gusting 21 7.8
2020-Jan-25 19:50 075 13 gusting 27 7.8
2020-Jan-25 19:45 089 14 gusting 27 7.8
2020-Jan-25 19:40 068 14 gusting 22 7.8
2020-Jan-25 19:35 108 14 gusting 23 7.2
2020-Jan-25 19:30 084 14 gusting 23 7.2
2020-Jan-25 19:25 088 15 gusting 26 7.2
2020-Jan-25 19:20 118 15 gusting 26 7.2
2020-Jan-25 19:15 131 14 gusting 25 7.2
2020-Jan-25 19:10 094 15 gusting 25 7.2
2020-Jan-25 19:05 100 16 gusting 28 7.2
2020-Jan-25 19:00 090 16 gusting 28 7.2
2020-Jan-25 18:55 075 15 gusting 24 7.2
2020-Jan-25 18:50 068 14 gusting 31 7.2
2020-Jan-25 18:45 067 13 gusting 31 7.2
2020-Jan-25 18:40 099 15 gusting 24 7.2
2020-Jan-25 18:35 085 17 gusting 29 7.2
2020-Jan-25 18:30 089 15 gusting 29 7.2
2020-Jan-25 18:25 091 15 gusting 26 7.2
2020-Jan-25 18:20 113 14 gusting 26 7.2
2020-Jan-25 18:15 079 14 gusting 27 7.2
2020-Jan-25 18:10 046 17 gusting 27 7.2
2020-Jan-25 18:05 064 16 gusting 29 7.2
2020-Jan-25 18:00 111 17 gusting 34 7.2
2020-Jan-25 17:55 115 17 gusting 34 7.2
2020-Jan-25 17:50 077 15 gusting 29 7.2
2020-Jan-25 17:45 090 14 gusting 26 7.2
2020-Jan-25 17:40 087 16 gusting 29 7.2
2020-Jan-25 17:35 070 16 gusting 32 7.2
2020-Jan-25 17:30 075 15 gusting 32 7.2
2020-Jan-25 17:25 110 13 gusting 25 7.2
2020-Jan-25 17:20 068 13 gusting 25 6.7
2020-Jan-25 17:15 076 15 gusting 26 6.7
2020-Jan-25 17:10 108 15 gusting 26 6.7
2020-Jan-25 17:05 096 13 gusting 24 6.7
2020-Jan-25 16:55 122 13 gusting 23 6.7
2020-Jan-25 16:50 108 13 gusting 23 6.7
2020-Jan-25 16:45 092 13 gusting 23 6.7
2020-Jan-25 16:40 087 13 gusting 23 6.7
2020-Jan-25 16:35 060 13 gusting 25 6.7
2020-Jan-25 16:30 105 12 gusting 25 6.7
2020-Jan-25 16:25 087 13 gusting 26 6.7
2020-Jan-25 16:20 085 13 gusting 26 6.7
2020-Jan-25 16:15 091 13 gusting 26 6.7
2020-Jan-25 16:10 085 13 gusting 26 6.7
2020-Jan-25 16:05 076 13 gusting 27 6.7
2020-Jan-25 16:00 090 13 gusting 27 6.7
2020-Jan-25 15:55 065 13 gusting 24 6.7
2020-Jan-25 15:50 073 13 gusting 25 6.7
2020-Jan-25 15:45 088 13 gusting 25 6.7
2020-Jan-25 15:40 055 13 gusting 30 6.7
2020-Jan-25 15:35 062 13 gusting 30 6.7
2020-Jan-25 15:30 062 13 gusting 25 6.7
2020-Jan-25 15:25 072 11 gusting 22 6.7
2020-Jan-25 15:20 063 12 gusting 22 6.7
2020-Jan-25 15:15 077 12 gusting 23 6.7
2020-Jan-25 15:10 060 11 gusting 23 6.7
2020-Jan-25 15:05 093 11 gusting 22 6.7
2020-Jan-25 15:00 093 11 gusting 20 6.7
2020-Jan-25 14:55 085 10 gusting 20 6.7
2020-Jan-25 14:50 058 12 gusting 22 6.7
2020-Jan-25 14:45 091 11 gusting 22 6.1
2020-Jan-25 14:40 071 9 gusting 21 6.1
2020-Jan-25 14:35 089 10 gusting 21 6.1
2020-Jan-25 14:30 086 11 gusting 21 6.1
2020-Jan-25 14:25 092 10 gusting 22 6.1
2020-Jan-25 14:20 079 9 gusting 22 6.1
2020-Jan-25 14:15 058 9 gusting 19 6.1
2020-Jan-25 14:10 053 10 gusting 19 6.1
2020-Jan-25 14:05 090 10 gusting 18 6.1
2020-Jan-25 14:00 061 10 gusting 17 6.1
2020-Jan-25 13:55 072 10 gusting 17 5.6
2020-Jan-25 13:50 060 10 gusting 18 5.6
2020-Jan-25 13:45 063 9 gusting 18 5.6
2020-Jan-25 13:40 067 9 gusting 17 5.6
2020-Jan-25 13:35 069 8 gusting 17 5.6
2020-Jan-25 13:30 053 9 gusting 18 5.6
2020-Jan-25 13:25 072 10 gusting 18 5.6
2020-Jan-25 13:20 071 10 gusting 20 5.6
2020-Jan-25 13:15 066 10 gusting 20 5.6
2020-Jan-25 13:10 074 9 gusting 17 5.0
2020-Jan-25 13:05 056 9 gusting 17 5.0
2020-Jan-25 13:00 063 9 gusting 17 5.0